Flag for Sweden Weather past 2 weeks in Malmö, Sweden

Now
43 °F

Drizzle. Fog.


Feels Like: 36 °F
Forecast: 37 / 44 °F
Wind: 12 mph from West

Location: Malmo / Sturup

Current Time: Mar 6, 2015 at 9:48:07 PM

Latest Report: Mar 6, 2015 at 9:20 PM


Visibility: 1 mi

Pressure: 30.36 "Hg

Humidity: 100%

Dew point: 43 °F

Location of MalmöLocation

Historic Weather in Malmö — Graph

°F

Malmö temperature yesterday

Maximum temperature yesterday: 43 °F (at 1:50 PM)
Minimum temperature yesterday: 30 °F (at 12:20 AM)
Average temperature yesterday: 36 °F

Past Weeks' High & Low Weather Summary

 TemperatureHumidityPressure
High45 °F (Feb 26, 2:20 PM)100% (Feb 21, 12:20 AM)30.45 "Hg (Feb 21, 12:20 AM)
Low28 °F (Feb 26, 1:50 AM)65% (Feb 28, 1:20 PM)29.18 "Hg (Feb 21, 4:20 PM)
Average37 °F90%29.77 "Hg
* Reported Feb 19 8:20 PM — Mar 6 8:20 PM, Malmö, Weather by CustomWeather, © 2015

Note: Actual official high and low records may vary slightly from our data, if they occured in-between our weather recording intervals... More about our weather records

Advertising

Malmö weather history for previous 24 hours

 ConditionsComfort  
Time TempWeatherWind HumidityBarometerVisibility
8:20 PM
Fri, Mar 6
43 °FFog.12 mph100%30.36 "Hg2 mi
7:50 PM43 °FFog.9 mph100%30.36 "Hg2 mi
7:20 PM43 °FLight rain. Fog.9 mph100%30.36 "Hg2 mi
6:50 PM43 °FDrizzle. Fog.10 mph100%30.36 "Hg3 mi
6:20 PM43 °FDrizzle. Fog.10 mph100%30.36 "Hg2 mi
5:50 PM43 °FDrizzle. Fog.10 mph100%30.33 "Hg2 mi
5:20 PM43 °FDrizzle. Fog.9 mph100%30.33 "Hg2 mi
4:50 PM43 °FLight rain. Fog.9 mph100%30.33 "Hg2 mi
4:20 PM43 °FDrizzle. Fog.9 mph100%30.33 "Hg2 mi
3:50 PM43 °FDrizzle. Fog.8 mph100%30.33 "Hg3 mi
3:20 PM43 °FFog.13 mph100%30.33 "Hg1 mi
2:50 PM43 °FFog.10 mph100%30.33 "Hg2 mi
2:20 PM43 °FLight rain. Low clouds.14 mph93%30.33 "Hg2 mi
1:50 PM43 °FFog.14 mph93%30.33 "Hg3 mi
1:20 PM43 °FFog.16 mph93%30.33 "Hg5 mi
12:50 PM43 °FFog.16 mph93%30.30 "Hg4 mi
12:20 PM43 °FFog.18 mph93%30.30 "Hg4 mi
11:50 AM43 °FFog.20 mph93%30.33 "Hg5 mi
11:20 AM41 °FFog.17 mph100%30.33 "Hg4 mi
10:50 AM41 °FFog.17 mph100%30.33 "Hg2 mi
10:20 AM41 °FFog.16 mph93%30.33 "Hg2 mi
9:50 AM41 °FLight rain. Fog.15 mph93%30.33 "Hg2 mi
9:20 AM41 °FLight rain. Fog.15 mph93%30.33 "Hg4 mi
8:50 AM41 °FFog.14 mph93%30.33 "Hg4 mi
8:20 AM39 °FFog.14 mph100%30.33 "Hg4 mi
7:50 AM39 °FFog.14 mph100%30.33 "Hg3 mi
7:20 AM39 °FFog.13 mph93%30.33 "Hg3 mi
6:50 AM39 °FFog.12 mph100%30.36 "Hg2 mi
6:20 AM39 °FFog.13 mph93%30.36 "Hg2 mi
5:50 AM39 °FFog.12 mph93%30.36 "Hg2 mi
5:20 AM39 °FFog.12 mph93%30.36 "Hg2 mi
4:50 AM37 °FFog.14 mph100%30.36 "Hg2 mi
4:20 AM37 °FFog.13 mph100%30.36 "Hg2 mi
3:50 AM37 °FFog.12 mph100%30.36 "Hg3 mi
3:20 AM39 °FFog.12 mph93%30.39 "Hg3 mi
2:50 AM39 °FLow clouds.10 mph93%30.39 "HgN/A
2:20 AM39 °FMostly cloudy.10 mph87%30.39 "HgN/A
1:50 AM39 °FMostly cloudy.8 mph87%30.42 "HgN/A
1:20 AM37 °FClear.8 mph93%30.42 "Hg10 mi
12:50 AM34 °FClear.6 mph100%30.42 "Hg10 mi
12:20 AM34 °FClear.6 mph93%30.42 "Hg10 mi
11:50 PM
Thu, Mar 5
34 °FClear.5 mph100%30.42 "Hg10 mi
11:20 PM32 °FClear.6 mph93%30.42 "Hg10 mi
10:50 PM34 °FClear.7 mph87%30.42 "Hg10 mi
10:20 PM32 °FClear.6 mph93%30.45 "Hg10 mi
9:50 PM34 °FClear.5 mph87%30.45 "Hg10 mi
9:20 PM36 °FClear.5 mph87%30.45 "Hg10 mi
Weather by CustomWeather, © 2015

See weather overviewHow to use our weather pages